User: anonymous   Login
Location: Unspecified
(0.0000°N, 0.0000°E)
Time: 12:27:29
(UTC+02:00)
Language:

ITAMSAT 1 - Orbit

View from above orbital plane
View from above orbital plane
View from above satellite
View from above satellite

Ground track
Ground track

The orbit data is extracted from the following two-line orbital elements,

1 22826U 93061D   15216.87178493  .00000058  00000-0  39474-4 0  9995
2 22826 098.7062 167.1651 0009372 151.3928 208.7770 14.30213713140046
Epoch (UTC): 04 August 2015 20:55:22
Eccentricity: 0.0009372
inclination: 98.7062°
perigee height: 784 km
apogee height: 798 km
right ascension of ascending node: 167.1651°
argument of perigee: 151.3928°
revolutions per day: 14.30213713
mean anomaly at epoch: 208.7770°
orbit number at epoch: 14004

The dashed part of the orbit path shows where the satellite is in the earth's shadow,  

DLR